TIME,DELAY(SENSOR),PRES,OXYGEN,RAWTEMP,T(OPTODE),TCPHASE,FLUOR,BETA(BETA700),BETA(BETA412),BETA(BETA440),CDOM,C(CSC),ED(ED412.40),ED(ED444.00),ED(ED489.70),ED(ED554.30),LU(LU411.80),LU(LU443.40),LU(LU489.60),LU(LU554.10),COMP,TILTX,TILTY,CHECK
1366258395,5811,832.4099731445312000,42.9430389404296900,654.9075927734375000,4.7954812049865720,54.4961013793945300,52,101,84,79,79,14840,2147754843,2147425481,2148008786,2147872530,2147639734,2147059044,2148257673,2147198692,2922,4,14,10516
1366261991,5809,894.5499877929688000,44.7909584045410160,660.9603881835938000,4.5963501930236820,54.2950897216796900,52,102,86,78,79,14839,2147754176,2147423497,2148007369,2147875593,2147638994,2147051300,2148261348,2147193865,5,4,13,57510
1366265591,5808,895.4500122070312000,45.5333290100097660,662.9509277343750000,4.5307769775390625,54.2111206054687500,53,101,86,78,81,14843,2147754020,2147425088,2148010066,2147870308,2147639579,2147056539,2148259712,2147195309,614,4,13,41668
1366269191,5810,925.3599853515625000,46.8199081420898440,666.5725097656250000,4.4113540649414060,54.0692405700683600,51,96,87,78,79,14834,2147755300,2147423981,2148012397,2147877549,2147641115,2147052699,2148261376,2147196681,12,4,13,45214
1366272791,5808,929.5200195312500000,47.0326499938964840,667.8696289062500000,4.3685460090637210,54.0597190856933600,51,99,84,78,81,14810,2147756132,2147426020,2148013440,2147872905,2147641280,2147054692,2148261878,2147194962,69,4,13,50481
1366276391,5809,935.9799804687500000,46.6151618957519500,666.5792236328125000,4.4111309051513670,54.1065483093261700,54,100,86,79,80,14830,2147753426,2147425161,2148009956,2147875894,2147638912,2147051584,2148260032,2147193865,177,4,13,61693
1366279991,5807,966.9600219726562000,47.2065200805664060,668.8076171875000000,4.3375802040100100,54.0428581237793000,52,98,89,79,80,14836,2147753700,2147420635,2148009170,2147876068,2147637129,2147054601,2148259574,2147196397,153,4,13,3803
1366283591,5809,968.4400024414062000,47.2252807617187500,668.6290283203125000,4.3434767723083500,54.0429801940918000,52,98,83,79,80,14835,2147752502,2147422345,2148010697,2147873234,2147642075,2147055286,2148255634,2147193883,343,4,13,45632
1366287191,5809,962.8400268554688000,47.7149696350097660,669.4453735351562000,4.3165168762207030,53.9823417663574200,52,98,83,79,80,14838,2147756397,2147425563,2148011638,2147872905,2147641462,2147055058,2148258788,2147190994,290,4,13,24291
1366290791,5808,985.9600219726562000,48.9262199401855500,672.5797119140625000,4.2129421234130860,53.8546981811523440,52,96,86,78,80,14836,2147757165,2147424996,2148011547,2147873234,2147641005,2147055387,2148257965,2147193097,3587,4,13,1683
1366294391,5809,995.8699951171875000,48.9788703918457000,672.6090087890625000,4.2119731903076170,53.8426704406738300,53,96,86,79,80,14838,2147759652,2147425408,2148010221,2147873499,2147640000,2147052480,2148256932,2147194011,3312,4,13,24576
1366297991,5810,993.2399902343750000,48.9926300048828100,672.5072021484375000,4.2153401374816895,53.8441505432128900,53,101,89,80,80,14832,2147753664,2147425088,2148013184,2147871862,2147638784,2147052178,2148257929,2147196534,54,4,13,35324
1366301591,5807,998.3800048828125000,48.9417800903320300,672.4561767578125000,4.2170281410217285,53.8451194763183600,52,100,88,79,80,14836,2147754971,2147423597,2148010569,2147876141,2147642761,2147053129,2148259620,2147192758,217,4,13,52387
1366305191,5811,991.7899780273438000,48.8008918762207000,672.5026855468750000,4.2154898643493650,53.8693809509277340,52,100,86,78,80,14835,2147753856,2147422784,2148011446,2147874066,2147643072,2147053019,2148261339,2147197714,52,4,13,54710
1366308791,5809,989.5499877929688000,49.1970405578613300,674.0499877929688000,4.1643180847167970,53.8309402465820300,52,98,86,78,80,14835,2147753462,2147423881,2148010258,2147873197,2147641161,2147055515,2148261165,2147196982,27,4,13,2066
1366312391,5809,998.9099731445312000,49.3914985656738300,673.5971069335938000,4.1792979240417480,53.7977409362793000,53,100,87,79,80,14835,2147754166,2147424155,2148011657,2147873828,2147642395,2147050450,2148261110,2147197577,3581,4,14,4675
1366315991,5809,998.1599731445312000,48.3978004455566400,673.3939819335938000,4.1860160827636720,53.9397392272949200,52,98,86,79,80,14835,2147754020,2147422528,2148008173,2147874944,2147642249,2147055350,2148261458,2147194057,254,4,13,45681
1366319591,5808,995.8200073242188000,49.3103790283203100,673.5433959960938000,4.1810741424560550,53.8131484985351560,52,128,84,82,81,14832,2147755236,2147425517,2148010944,2147879076,2147642386,2147059584,2148260617,2147195949,3572,4,13,41935
1366323191,5810,997.9400024414062000,49.2670707702636700,673.9583129882812000,4.1673507690429690,53.8190383911132800,52,97,87,79,81,14834,2147755465,2147423606,2148011977,2147877577,2147640384,2147052534,2148262080,2147192374,3183,4,13,49093
1366326791,5812,993.5800170898438000,49.2463493347168000,674.7700195312500000,4.1404948234558105,53.8346900939941400,52,97,88,77,81,14834,2147754816,2147425590,2148009490,2147873764,2147643291,2147056813,2148260470,2147198564,88,4,13,18393
1366330391,5811,995.7800292968750000,49.5863113403320300,674.8515014648438000,4.1378002166748050,53.7848892211914060,51,98,86,78,80,14834,2147756891,2147427913,2148012077,2147869394,2147640448,2147058596,2148264027,2147197330,131,4,13,34379
1366333991,5810,1010.9500122070312000,49.1747398376464840,673.2125854492188000,4.1920127868652340,53.8243598937988300,53,99,85,80,81,14831,2147757531,2147423405,2148011739,2147873856,2147640429,2147056621,2148260022,2147193152,2985,4,13,19287
1366337591,5805,1006.8800048828125000,48.3068313598632800,671.7606201171875000,4.2400231361389160,53.9301490783691400,52,98,86,79,81,14814,2147753691,2147425188,2148008301,2147871652,2147641737,2147052562,2148259355,2147196809,3438,4,13,36154
1366341191,5813,1007.6900024414062000,48.2400093078613300,671.7929077148438000,4.2389531135559080,53.9398994445800800,52,97,82,78,80,14832,2147755465,2147422802,2148010230,2147873691,2147639579,2147051300,2148256896,2147197257,43,4,13,51278
1366344791,5809,1007.3300170898438000,47.5904808044433600,670.8248901367188000,4.2709450721740720,54.0162696838378900,52,99,84,78,81,14833,2147750720,2147424054,2148007158,2147873197,2147641261,2147057545,2148262372,2147197650,3425,4,13,51797
1366348391,5806,999.2000122070312000,48.2123908996582000,672.2910156250000000,4.2224879264831540,53.9496994018554700,51,97,84,80,82,14828,2147754980,2147424054,2148010377,2147874788,2147638710,2147052681,2148257325,2147194505,187,4,13,55601
1366351991,5811,999.4000244140625000,48.7664909362793000,673.8654174804688000,4.1704239845275880,53.8923683166503900,52,98,85,78,81,14833,2147753042,2147422838,2148009280,2147875072,2147639451,2147054253,2148263104,2147197348,44,4,13,22959
1366355591,5806,993.8900146484375000,49.0999908447265600,675.0905761718750000,4.1298871040344240,53.8562202453613300,52,101,84,80,81,14830,2147755693,2147425334,2148009344,2147873654,2147639789,2147055094,2148260964,2147193590,127,4,13,30069
1366359191,5809,991.0399780273438000,49.2505302429199200,675.3480834960938000,4.1213679313659670,53.8414802551269500,51,98,87,78,81,14828,2147757229,2147425142,2148011081,2147872960,2147639286,2147055195,2148257938,2147193590,3276,4,13,47216
1366362791,5808,998.1099853515625000,49.0730400085449200,675.2788696289062000,4.1236548423767090,53.8625297546386700,52,97,86,78,80,14828,2147759771,2147424100,2148010541,2147876205,2147638482,2147061787,2148265883,2147197293,3577,4,13,14559
1366366391,5808,1008.0900268554688000,49.1121711730957000,673.6953735351562000,4.1760478019714355,53.8382797241210940,52,98,86,79,80,14825,2147754724,2147423542,2148012141,2147873508,2147640329,2147060992,2148259940,2147192594,349,4,13,62389
1366369991,5808,1006.7600097656250000,48.6610794067382800,673.2050781250000000,4.1922631263732910,53.8988914489746100,52,125,82,78,81,14826,2147753435,2147427309,2148010523,2147874395,2147638793,2147053952,2148257993,2147197485,3488,4,13,46891
1366373591,5811,1006.7399902343750000,48.3218193054199200,673.2069702148438000,4.1922020912170410,53.9434394836425800,52,96,85,78,80,14826,2147754020,2147424073,2148012105,2147870637,2147641289,2147054893,2148262902,2147197147,3370,4,13,17946
1366377191,5810,1007.9400024414062000,48.6701393127441400,672.3914184570312000,4.2191700935363770,53.8823585510253900,53,98,82,79,80,14826,2147756379,2147426742,2148011209,2147872841,2147640457,2147060242,2148262829,2147196754,270,4,13,50733
1366380791,5808,1009.2500000000000000,48.2047691345214840,672.3140869140625000,4.2217240333557130,53.9494094848632800,52,98,86,78,80,14817,2147753170,2147424996,2148012288,2147875611,2147637138,2147057014,2148263268,2147196918,390,4,13,18335
1366384391,5810,1008.5100097656250000,48.2898216247558600,672.6724243164062000,4.2098770141601560,53.9408988952636700,52,98,85,78,82,14789,2147754541,2147425755,2148011702,2147874038,2147641280,2147053101,2148258889,2147197376,37,4,13,1298
1366387991,5810,1009.7999877929688000,48.1122093200683600,672.7133178710938000,4.2085251808166500,53.9664611816406250,52,103,89,80,80,14829,2147755008,2147422107,2148004187,2147875904,2147640192,2147053650,2148255899,2147198811,3545,4,13,40932
1366391591,5812,1009.9600219726562000,48.4171295166015600,673.1049804687500000,4.1955718994140625,53.9328117370605500,52,98,85,79,81,14825,2147753371,2147423780,2148009408,2147871168,2147639451,2147060937,2148261083,2147194605,3328,4,13,9081
1366395191,5806,1005.8800048828125000,48.1527709960937500,673.2927856445312000,4.1893630027771000,53.9711914062500000,52,99,88,79,82,14819,2147756617,2147429001,2148013677,2147872923,2147641856,2147058130,2148262098,2147197339,3520,4,13,61472
1366398791,5809,1006.5000000000000000,49.4036598205566400,674.6690063476562000,4.1438388824462890,53.8142089843750000,52,99,85,79,81,14825,2147756297,2147424676,2148010185,2147872512,2147639241,2147050669,2148263314,2147199643,3119,4,13,31320
1366402256,5809,1001.4600219726562000,48.1693611145019500,673.6862182617188000,4.1763520240783690,53.9691200256347660,52,97,83,80,80,14823,2147752841,2147425664,2148012032,2147875053,2147640777,2147053037,2148257508,2147199707,3276,4,13,47454
